Weather History for Harvey, ND

Change the Weather History Date:

Tuesday, February 5, 2013

  Actual Average (KRUG) Record (KRUG)
Temperature  
Mean Temperature 20 °F -  
Max Temperature 32 °F 18 °F 53 °F (1963)
Min Temperature 8 °F 0 °F -35 °F (1982)
Degree Days  
Heating Degree Days 45    
Moisture  
Dew Point 12 °F    
Average Humidity 88    
Maximum Humidity 100    
Minimum Humidity 79    
Precipitation  
Precipitation 0.06 in - - ()
Sea Level Pressure  
Sea Level Pressure 29.86 in    
Wind  
Wind Speed 9 mph (East)    
Max Wind Speed 20 mph    
Max Gust Speed 23 mph    
Visibility 10 miles    
Events Snow    
Averages and records for this station are not official NWS values.
T = Trace of Precipitation, MM = Missing Value Source: NWS Daily Summary

Daily Weather History Graph

Daily Weather History Graph

Search for Another Location

Airport:

Trip Planner

Search our weather history database for the weather conditions in past years. The results will help you decide how hot, cold, wet, or windy it might be!

Date:

Astronomy

Feb. 05, 2013 Rise Set
Actual Time 8:00 AM CST 5:47 PM CST
Civil Twilight 7:28 AM CST 6:20 PM CST
Nautical Twilight 6:51 AM CST 6:56 PM CST
Astronomical Twilight 6:15 AM CST 7:32 PM CST
Moon 3:52 AM CST (2/5) 12:57 PM CST (2/5)
Length of Visible Light 10h 51m
Length of Day
9h 46m
Waning Crescent, 26% of the Moon is Illuminated
Feb 5
Waning Crescent
Feb 10
New
Feb 17
First Quarter
Feb 25
Full
Mar 4
Last Quarter

Hourly Weather History & Observations

Time (CST) Temp. Windchill Dew Point Humidity Pressure Visibility Wind Dir Wind Speed Gust Speed Precip Events Conditions
12:15 AM 32.0 °F 24.2 °F 28.4 °F 87% 29.59 in 10.0 mi WNW 9.2 mph - N/A   Clear
12:35 AM 30.2 °F 21.3 °F 28.4 °F 93% 29.59 in 10.0 mi WNW 10.4 mph - N/A   Partly Cloudy
12:55 AM 30.2 °F 21.3 °F 28.4 °F 93% 29.60 in 10.0 mi WNW 10.4 mph - N/A   Partly Cloudy
1:15 AM 30.2 °F 20.2 °F 28.4 °F 93% 29.61 in 10.0 mi WNW 12.7 mph - N/A   Mostly Cloudy
1:35 AM 32.0 °F 21.6 °F 28.4 °F 87% 29.62 in 10.0 mi NW 15.0 mph - N/A   Overcast
1:55 AM 32.0 °F 22.1 °F 30.2 °F 93% 29.63 in 10.0 mi NW 13.8 mph - N/A   Overcast
2:15 AM 32.0 °F 21.6 °F 28.4 °F 87% 29.64 in 10.0 mi NW 15.0 mph - N/A   Overcast
2:35 AM 32.0 °F 21.2 °F 28.4 °F 87% 29.65 in 10.0 mi NW 16.1 mph - N/A   Overcast
2:55 AM 32.0 °F 22.5 °F 30.2 °F 93% 29.66 in 3.0 mi NNW 12.7 mph - 0.05 in Snow Light Snow
3:15 AM 30.2 °F 17.8 °F 28.4 °F 93% 29.69 in 6.0 mi NNE 19.6 mph 23.0 mph 0.01 in   Overcast
3:35 AM 19.4 °F 6.0 °F 19.4 °F 100% 29.70 in 5.0 mi NE 13.8 mph - 0.01 in   Overcast
3:55 AM 19.4 °F 7.9 °F 17.6 °F 93% 29.71 in 5.0 mi NNE 10.4 mph - 0.01 in   Overcast
4:15 AM 17.6 °F 3.2 °F 15.8 °F 93% 29.74 in 7.0 mi NNE 15.0 mph - N/A   Overcast
4:35 AM 15.8 °F 0.3 °F 14.0 °F 93% 29.75 in 10.0 mi NNE 16.1 mph - N/A   Overcast
4:55 AM 15.8 °F 0.9 °F 14.0 °F 93% 29.77 in 10.0 mi NNE 15.0 mph - N/A   Overcast
5:15 AM 14.0 °F -0.2 °F 12.2 °F 93% 29.78 in 10.0 mi NE 12.7 mph - N/A   Overcast
5:35 AM 14.0 °F 0.5 °F 10.4 °F 86% 29.80 in 10.0 mi NE 11.5 mph - N/A   Overcast
5:55 AM 12.2 °F -3.7 °F 8.6 °F 85% 29.82 in 10.0 mi NNE 15.0 mph - N/A   Overcast
6:15 AM 10.4 °F -5.4 °F 8.6 °F 92% 29.84 in 10.0 mi NE 13.8 mph - N/A   Overcast
6:35 AM 10.4 °F -5.4 °F 6.8 °F 85% 29.85 in 10.0 mi NE 13.8 mph - N/A   Overcast
6:55 AM 10.4 °F -4.8 °F 6.8 °F 85% 29.86 in 10.0 mi NE 12.7 mph - N/A   Overcast
7:15 AM 10.4 °F -3.3 °F 5.0 °F 79% 29.88 in 10.0 mi NE 10.4 mph - N/A   Overcast
7:35 AM 10.4 °F -1.5 °F 5.0 °F 79% 29.89 in 10.0 mi ENE 8.1 mph - N/A   Overcast
7:55 AM 8.6 °F -2.6 °F 5.0 °F 85% 29.89 in 10.0 mi NE 6.9 mph - N/A   Overcast
8:15 AM 8.6 °F -3.7 °F 5.0 °F 85% 29.90 in 10.0 mi NE 8.1 mph - N/A   Overcast
8:35 AM 8.6 °F -1.3 °F 5.0 °F 85% 29.91 in 10.0 mi NE 5.8 mph - N/A   Overcast
8:55 AM 8.6 °F -1.3 °F 5.0 °F 85% 29.92 in 10.0 mi NE 5.8 mph - N/A   Overcast
9:15 AM 8.6 °F -1.3 °F 5.0 °F 85% 29.93 in 10.0 mi ENE 5.8 mph - N/A   Overcast
9:35 AM 8.6 °F -1.3 °F 5.0 °F 85% 29.93 in 10.0 mi ENE 5.8 mph - N/A   Overcast
9:55 AM 8.6 °F 0.1 °F 5.0 °F 85% 29.94 in 10.0 mi ENE 4.6 mph - N/A   Overcast
10:15 AM 8.6 °F -2.6 °F 5.0 °F 85% 29.94 in 10.0 mi ENE 6.9 mph - N/A   Overcast
10:35 AM 8.6 °F -1.3 °F 5.0 °F 85% 29.95 in 10.0 mi ENE 5.8 mph - N/A   Overcast
10:55 AM 8.6 °F 0.1 °F 5.0 °F 85% 29.96 in 10.0 mi ENE 4.6 mph - N/A   Overcast
11:15 AM 8.6 °F 0.1 °F 5.0 °F 85% 29.97 in 10.0 mi East 4.6 mph - N/A   Overcast
11:35 AM 8.6 °F -1.3 °F 5.0 °F 85% 29.97 in 10.0 mi East 5.8 mph - N/A   Overcast
11:55 AM 8.6 °F -1.3 °F 5.0 °F 85% 29.97 in 10.0 mi ENE 5.8 mph - N/A   Overcast
12:15 PM 8.6 °F 0.1 °F 5.0 °F 85% 29.97 in 10.0 mi East 4.6 mph - N/A   Overcast
12:35 PM 8.6 °F -1.3 °F 5.0 °F 85% 29.97 in 10.0 mi SSE 5.8 mph - N/A   Overcast
12:55 PM 8.6 °F -1.3 °F 5.0 °F 85% 29.97 in 10.0 mi SSE 5.8 mph - N/A   Overcast
1:15 PM 10.4 °F -0.4 °F 5.0 °F 79% 29.96 in 10.0 mi SE 6.9 mph - N/A   Overcast
1:35 PM 10.4 °F 0.8 °F 5.0 °F 79% 29.96 in 10.0 mi SSE 5.8 mph - N/A   Overcast
1:55 PM 10.4 °F 2.2 °F 6.8 °F 85% 29.96 in 10.0 mi SSE 4.6 mph - N/A   Overcast
2:15 PM 10.4 °F 0.8 °F 6.8 °F 85% 29.96 in 10.0 mi SE 5.8 mph - N/A   Overcast
2:35 PM 10.4 °F 0.8 °F 6.8 °F 85% 29.95 in 10.0 mi SE 5.8 mph - N/A   Overcast
2:55 PM 10.4 °F 0.8 °F 6.8 °F 85% 29.94 in 10.0 mi SE 5.8 mph - N/A   Overcast
3:15 PM 10.4 °F 0.8 °F 6.8 °F 85% 29.94 in 10.0 mi SSE 5.8 mph - N/A   Overcast
3:35 PM 14.0 °F 3.9 °F 8.6 °F 79% 29.94 in 10.0 mi South 6.9 mph - N/A   Overcast
3:55 PM 14.0 °F 5.1 °F 8.6 °F 79% 29.94 in 10.0 mi South 5.8 mph - N/A   Overcast
4:15 PM 14.0 °F 3.9 °F 8.6 °F 79% 29.94 in 10.0 mi South 6.9 mph - N/A   Mostly Cloudy
4:35 PM 14.0 °F 6.5 °F 10.4 °F 86% 29.93 in 10.0 mi SSE 4.6 mph - N/A   Overcast
4:55 PM 15.8 °F 8.6 °F 10.4 °F 79% 29.93 in 10.0 mi SSE 4.6 mph - N/A   Overcast
5:15 PM 15.8 °F 6.1 °F 10.4 °F 79% 29.92 in 10.0 mi SSE 6.9 mph - N/A   Overcast
5:35 PM 15.8 °F 8.6 °F 10.4 °F 79% 29.92 in 10.0 mi SSE 4.6 mph - N/A   Overcast
5:55 PM 15.8 °F 8.6 °F 12.2 °F 86% 29.92 in 10.0 mi SSE 4.6 mph - N/A   Overcast
6:15 PM 15.8 °F - 12.2 °F 86% 29.92 in 10.0 mi Calm Calm - N/A   Overcast
6:35 PM 15.8 °F - 14.0 °F 93% 29.92 in 10.0 mi Calm Calm - N/A   Overcast
6:55 PM 15.8 °F 7.2 °F 14.0 °F 93% 29.92 in 10.0 mi SSE 5.8 mph - N/A   Overcast
7:15 PM 15.8 °F 7.2 °F 14.0 °F 93% 29.91 in 10.0 mi ESE 5.8 mph - N/A   Overcast
7:35 PM 15.8 °F 10.2 °F 14.0 °F 93% 29.90 in 10.0 mi ESE 3.5 mph - N/A   Overcast
7:55 PM 15.8 °F 8.6 °F 14.0 °F 93% 29.91 in 10.0 mi ESE 4.6 mph - N/A   Overcast
8:15 PM 14.0 °F - 12.2 °F 93% 29.91 in 10.0 mi Calm Calm - N/A   Overcast
8:35 PM 14.0 °F - 12.2 °F 93% 29.91 in 10.0 mi Calm Calm - N/A   Overcast
8:55 PM 14.0 °F 6.5 °F 12.2 °F 93% 29.91 in 10.0 mi SE 4.6 mph - N/A   Mostly Cloudy
9:15 PM 14.0 °F 6.5 °F 12.2 °F 93% 29.90 in 10.0 mi ESE 4.6 mph - N/A   Scattered Clouds
9:35 PM 12.2 °F 6.1 °F 10.4 °F 92% 29.90 in 8.0 mi SSE 3.5 mph - N/A   Partly Cloudy
9:55 PM 12.2 °F - 10.4 °F 92% 29.90 in 8.0 mi Calm Calm - N/A   Mostly Cloudy
10:15 PM 10.4 °F 4.0 °F 8.6 °F 92% 29.90 in 7.0 mi SE 3.5 mph - N/A   Overcast
10:35 PM 10.4 °F - 8.6 °F 92% 29.90 in 9.0 mi Calm Calm - N/A   Overcast
10:55 PM 10.4 °F 2.2 °F 10.4 °F 100% 29.89 in 9.0 mi SE 4.6 mph - N/A   Overcast
11:15 PM 14.0 °F 8.2 °F 10.4 °F 86% 29.91 in 10.0 mi SSE 3.5 mph - N/A   Overcast
11:35 PM 14.0 °F 8.2 °F 14.0 °F 100% 29.91 in 10.0 mi South 3.5 mph - N/A   Mostly Cloudy
11:55 PM 15.8 °F 7.2 °F 14.0 °F 93% 29.89 in 10.0 mi SSE 5.8 mph - N/A   Partly Cloudy